Stations météo

réclame
Mon MeteoGroup
Geneve-Cointrin, Suisse (6700): Température de l'air & dewpoint: 27.05.2020 07:00:00 - 02.06.2020 07:00:00 (CEST)Geneve-Cointrin, Suisse (6700): Température de l'air 5cm: 27.05.2020 07:00:00 - 02.06.2020 07:00:00 (CEST)Geneve-Cointrin, Suisse (6700): Vitesse du vent & gusts: 27.05.2020 07:00:00 - 02.06.2020 07:00:00 (CEST)Geneve-Cointrin, Suisse (6700): Direction du vent: 27.05.2020 07:00:00 - 02.06.2020 07:00:00 (CEST)Geneve-Cointrin, Suisse (6700): reduced air pressure: 27.05.2020 07:00:00 - 02.06.2020 07:00:00 (CEST)Geneve-Cointrin, Suisse (6700): visibility: 27.05.2020 07:00:00 - 02.06.2020 07:00:00 (CEST)Geneve-Cointrin, Suisse (6700): Ensoleillement: 27.05.2020 07:00:00 - 02.06.2020 07:00:00 (CEST)Geneve-Cointrin, Suisse (6700): Quantités de précipitations: 27.05.2020 07:00:00 - 02.06.2020 07:00:00 (CEST)
Date & Time tt [°C] td [°C] tt 5cm [°C] ff [km/h] ff [knt] fx [km/h] fx [knt] dd ppp [hPa] vv [km] sd [min] rr [mm]
02.06.2020 07:00:00 13,8 10,8 13,8 1 1 5 3 NW 1017,8 - 38 0,0
02.06.2020 06:00:00 12,9 10,4 8,7 3 2 6 4 WNW 1017,5 - 0 0,0
02.06.2020 05:00:00 14,5 10,8 11,7 6 3 14 7 W 1017,3 - 0 0,0
02.06.2020 04:00:00 14,3 11,2 11,2 6 3 12 6 NW 1017,4 - 0 0,0
02.06.2020 03:00:00 15,4 11,2 13,8 5 3 25 14 W 1017,8 - 0 0,0
02.06.2020 02:00:00 17,2 11,6 16,4 14 8 39 21 WSW 1018,0 - 0 0,0
02.06.2020 01:00:00 18,1 12,0 16,1 15 8 25 14 WSW 1017,7 - 0 0,0
02.06.2020 00:00:00 17,3 12,6 15,2 15 8 21 11 SW 1017,3 - 0 0,0
01.06.2020 23:00:00 16,6 11,8 12,0 1 1 8 4 NNE 1016,6 60 0 0,0
01.06.2020 22:00:00 18,5 11,8 14,3 3 1 5 3 ESE 1016,0 - 0 0,0
01.06.2020 21:00:00 20,2 10,7 16,3 4 2 5 3 NE 1015,0 - 0 0,0
01.06.2020 20:00:00 22,2 10,0 20,2 4 2 5 3 WNW 1014,5 50 0 0,0
01.06.2020 19:00:00 23,7 5,8 22,5 4 2 13 7 NNE 1014,1 - 11 0,0
01.06.2020 18:00:00 24,6 7,0 26,1 9 5 20 11 NE 1014,2 - 57 0,0
01.06.2020 17:00:00 25,0 5,2 28,9 9 5 19 10 NNE 1014,3 60 60 0,0
01.06.2020 16:00:00 23,8 7,7 26,4 12 7 21 11 ENE 1015,1 - 60 0,0
01.06.2020 15:00:00 23,7 8,5 28,7 14 8 21 11 NE 1015,6 - 60 0,0
01.06.2020 14:00:00 22,2 8,6 28,0 8 4 18 10 E 1016,2 60 60 0,0
01.06.2020 13:00:00 21,1 9,0 27,1 8 4 21 11 ENE 1016,7 - 60 0,0
01.06.2020 12:00:00 20,0 8,4 25,3 7 4 24 13 NNE 1017,2 - 60 0,0
01.06.2020 11:00:00 18,3 6,9 23,1 13 7 22 12 NE 1017,8 60 60 0,0
01.06.2020 10:00:00 17,0 7,1 21,6 14 7 24 13 NE 1018,2 - 60 0,0
01.06.2020 09:00:00 15,2 6,7 19,7 6 3 12 7 E 1018,5 - 60 0,0
01.06.2020 08:00:00 14,0 7,4 17,1 1 1 4 2 WNW 1018,6 60 60 0,0
01.06.2020 07:00:00 11,1 6,6 10,9 3 2 4 2 SW 1019,0 - 38 0,0
01.06.2020 06:00:00 9,0 6,1 5,2 2 1 7 4 W 1019,1 - 0 0,0
01.06.2020 05:00:00 10,0 6,5 5,7 4 2 5 3 WNW 1018,6 - 0 0,0
01.06.2020 04:00:00 10,4 6,3 6,4 2 1 9 5 NW 1018,7 - 0 0,0
01.06.2020 03:00:00 11,5 6,6 7,1 3 2 5 3 WNW 1018,4 - 0 0,0
01.06.2020 02:00:00 12,7 7,1 9,0 2 1 8 4 WNW 1018,0 - 0 0,0
01.06.2020 01:00:00 15,6 7,4 10,7 3 2 16 9 N 1017,2 - 0 0,0
01.06.2020 00:00:00 17,0 6,1 13,3 7 4 17 9 NNE 1016,3 - 0 0,0
31.05.2020 23:00:00 16,8 6,3 10,2 9 5 14 8 NNE 1016,0 60 0 0,0
31.05.2020 22:00:00 17,6 7,4 12,0 7 4 13 7 N 1015,4 - 0 0,0
31.05.2020 21:00:00 19,0 8,6 15,8 6 3 16 9 N 1014,6 - 40 0,0
31.05.2020 20:00:00 21,1 8,3 19,4 9 5 18 10 NNE 1014,0 50 52 0,0
31.05.2020 19:00:00 22,0 8,3 23,6 10 5 21 11 NNE 1013,7 - 42 0,0
31.05.2020 18:00:00 22,2 7,4 25,8 11 6 21 12 NE 1013,8 - 60 0,0
31.05.2020 17:00:00 22,2 7,5 26,2 13 7 19 11 ENE 1014,2 45 60 0,0
31.05.2020 16:00:00 21,6 7,5 27,1 13 7 24 13 NE 1014,4 - 60 0,0
31.05.2020 15:00:00 21,1 7,9 26,2 14 8 27 15 ENE 1014,6 - 60 0,0
31.05.2020 14:00:00 19,7 7,5 25,8 11 6 19 10 NE 1015,2 60 60 0,0
31.05.2020 13:00:00 18,6 6,6 24,6 9 5 25 13 NE 1015,9 - 60 0,0
31.05.2020 12:00:00 18,5 7,1 23,5 14 7 21 11 ENE 1016,3 - 60 0,0
31.05.2020 11:00:00 16,5 6,7 22,8 8 4 21 12 NE 1016,9 60 60 0,0
31.05.2020 10:00:00 15,4 5,7 19,8 15 8 24 13 NE 1017,2 - 60 0,0
31.05.2020 09:00:00 15,2 6,5 18,3 13 7 23 12 NE 1017,5 - 60 0,0
31.05.2020 08:00:00 13,3 6,5 15,8 1 1 4 2 SE 1017,6 60 56 0,0
31.05.2020 07:00:00 10,2 6,4 10,0 2 1 6 3 NNW 1018,2 - 36 0,0
31.05.2020 06:00:00 8,4 5,9 4,9 4 2 7 4 NW 1018,1 - 0 0,0
31.05.2020 05:00:00 9,9 5,8 5,2 1 1 9 5 SW 1017,6 - 0 0,0
31.05.2020 04:00:00 10,5 5,7 5,5 2 1 6 3 NNW 1017,6 - 0 0,0
31.05.2020 03:00:00 11,7 5,4 6,7 1 1 6 3 NNW 1017,4 - 0 0,0
31.05.2020 02:00:00 13,2 6,2 7,6 3 1 19 10 WSW 1017,2 - 0 0,0
31.05.2020 01:00:00 15,4 4,6 11,7 10 5 22 12 NNE 1016,7 - 0 0,0
31.05.2020 00:00:00 15,6 4,0 11,8 9 5 26 14 NNE 1016,6 - 0 0,0
30.05.2020 23:00:00 16,5 3,5 13,0 10 6 19 10 NNE 1016,2 60 0 0,0
30.05.2020 22:00:00 15,8 4,9 11,8 9 5 18 10 N 1015,8 - 0 0,0
30.05.2020 21:00:00 18,1 6,3 15,6 10 5 19 10 NNE 1015,0 - 3 0,0
30.05.2020 20:00:00 19,4 8,1 18,4 9 5 23 12 N 1014,6 50 25 0,0
30.05.2020 19:00:00 20,2 8,2 19,1 10 5 18 10 NNE 1014,5 - 1 0,0
30.05.2020 18:00:00 20,7 7,7 21,9 13 7 27 14 NNE 1014,5 - 53 0,0
30.05.2020 17:00:00 21,6 8,3 26,0 13 7 24 13 NNE 1014,8 45 60 0,0
30.05.2020 16:00:00 21,5 6,6 26,5 11 6 26 14 NNE 1015,0 - 60 0,0
30.05.2020 15:00:00 19,9 7,5 25,3 16 8 22 12 E 1015,6 - 60 0,0
30.05.2020 14:00:00 19,7 9,0 25,8 8 5 19 10 E 1016,3 60 60 0,0
30.05.2020 13:00:00 19,4 9,2 24,1 9 5 22 12 E 1016,9 - 60 0,0
30.05.2020 12:00:00 17,1 7,8 23,8 6 3 21 12 N 1018,0 - 60 0,0
30.05.2020 11:00:00 17,0 8,1 22,5 10 5 22 12 ENE 1018,5 60 60 0,0
30.05.2020 10:00:00 15,1 7,1 19,8 13 7 23 12 NE 1019,1 - 60 0,0
30.05.2020 09:00:00 14,5 7,0 16,9 16 9 24 13 NE 1019,4 - 29 0,0
30.05.2020 08:00:00 13,0 7,2 16,0 8 4 14 8 ENE 1019,6 60 55 0,0
30.05.2020 07:00:00 10,1 6,4 9,6 1 1 5 3 W 1020,0 - 33 0,0
30.05.2020 06:00:00 8,7 6,3 4,3 1 1 5 3 N 1020,1 - 0 0,0
30.05.2020 05:00:00 9,3 5,9 4,5 1 1 11 6 WSW 1020,0 - 0 0,0
30.05.2020 04:00:00 9,9 5,9 5,1 3 2 7 4 WSW 1019,9 - 0 0,0
30.05.2020 03:00:00 10,5 5,7 6,6 3 2 6 4 W 1019,8 - 0 0,0
30.05.2020 02:00:00 11,3 5,6 6,8 2 1 6 3 NW 1019,4 - 0 0,0
30.05.2020 01:00:00 13,4 5,4 9,2 4 2 11 6 WSW 1019,0 - 0 0,0
30.05.2020 00:00:00 14,5 6,1 10,5 6 4 19 11 N 1018,7 - 0 0,0
29.05.2020 23:00:00 15,6 4,5 11,7 9 5 19 11 NNE 1018,5 60 0 0,0
29.05.2020 22:00:00 16,5 4,6 12,8 9 5 23 12 N 1018,0 - 0 0,0
29.05.2020 21:00:00 17,4 5,2 14,8 9 5 41 22 N 1017,5 - 39 0,0
29.05.2020 20:00:00 19,6 4,5 19,1 23 13 41 22 NNE 1016,8 60 60 0,0
29.05.2020 19:00:00 20,5 4,4 21,4 24 13 44 24 NNE 1016,5 - 60 0,0
29.05.2020 18:00:00 21,1 4,6 22,9 26 14 52 28 NNE 1016,6 - 60 0,0
29.05.2020 17:00:00 21,3 5,4 23,9 29 16 51 28 NE 1016,7 60 60 0,0
29.05.2020 16:00:00 21,2 6,3 24,5 25 13 46 25 NE 1017,1 - 60 0,0
29.05.2020 15:00:00 20,8 5,2 24,2 29 15 47 26 NNE 1017,4 - 60 0,0
29.05.2020 14:00:00 20,4 4,2 24,2 28 15 47 25 NNE 1018,1 60 60 0,0
29.05.2020 13:00:00 19,0 4,1 23,0 23 13 50 27 NNE 1018,9 - 60 0,0
29.05.2020 12:00:00 18,3 4,8 21,9 29 16 45 24 NE 1019,3 - 60 0,0
29.05.2020 11:00:00 17,6 5,7 20,8 24 13 48 26 NE 1019,8 60 60 0,0
29.05.2020 10:00:00 16,2 5,5 19,3 26 14 47 26 NE 1020,2 - 60 0,0
29.05.2020 09:00:00 15,4 6,1 17,7 27 15 42 23 NE 1020,6 - 60 0,0
29.05.2020 08:00:00 14,7 5,5 15,6 22 12 44 24 NE 1021,1 - 60 0,0
29.05.2020 07:00:00 14,3 5,1 13,6 21 11 40 21 NE 1021,1 - 34 0,0
29.05.2020 06:00:00 14,4 4,8 12,1 23 12 39 21 NE 1021,3 - 0 0,0
29.05.2020 05:00:00 14,9 6,4 12,3 12 7 27 14 NE 1021,2 - 0 0,0
29.05.2020 04:00:00 15,4 7,5 12,0 8 4 29 16 ENE 1021,3 - 0 0,0
29.05.2020 03:00:00 16,2 8,2 13,9 21 11 44 24 NE 1021,2 - 0 0,0
29.05.2020 02:00:00 17,0 7,8 14,6 26 14 43 23 NNE 1021,0 - 0 0,0
29.05.2020 01:00:00 17,5 7,9 15,2 21 12 37 20 NNE 1021,4 - 0 0,0
29.05.2020 00:00:00 18,0 8,1 15,2 19 10 35 19 NNE 1021,4 - 0 0,0
28.05.2020 23:00:00 17,5 8,9 15,0 13 7 23 12 NNE 1021,8 60 0 0,0
28.05.2020 22:00:00 18,4 7,4 15,8 14 7 27 15 NNE 1021,5 - 0 0,0
28.05.2020 21:00:00 20,7 6,5 17,7 16 9 33 18 NNE 1021,0 - 39 0,0
28.05.2020 20:00:00 22,1 6,3 21,3 18 10 35 19 NNE 1021,0 60 60 0,0
28.05.2020 19:00:00 23,0 5,5 23,7 21 11 42 23 NE 1021,0 - 60 0,0
28.05.2020 18:00:00 23,6 4,2 25,1 26 14 46 25 NE 1021,3 - 60 0,0
28.05.2020 17:00:00 23,9 5,8 26,1 27 15 41 22 NE 1021,6 60 60 0,0
28.05.2020 16:00:00 23,8 6,7 27,3 19 11 33 18 NE 1022,4 - 60 0,0
28.05.2020 15:00:00 23,2 6,6 27,2 18 10 33 18 NNE 1023,2 - 60 0,0
28.05.2020 14:00:00 22,6 7,4 26,9 21 11 32 17 NE 1023,9 60 60 0,0
28.05.2020 13:00:00 21,7 7,6 25,9 19 10 32 17 NNE 1024,6 - 60 0,0
28.05.2020 12:00:00 20,3 7,5 24,5 17 9 29 15 NE 1025,5 - 60 0,0
28.05.2020 11:00:00 18,6 7,5 23,1 11 6 20 11 ENE 1026,4 60 60 0,0
28.05.2020 10:00:00 17,1 6,2 22,3 7 4 13 7 E 1026,9 - 60 0,0
28.05.2020 09:00:00 16,0 8,2 20,1 5 3 8 5 ENE 1027,7 - 60 0,0
28.05.2020 08:00:00 13,3 6,7 16,2 2 1 4 2 NNE 1028,3 60 60 0,0
28.05.2020 07:00:00 10,0 6,6 10,2 2 1 4 2 WNW 1029,0 - 34 0,0
28.05.2020 06:00:00 8,7 5,9 4,7 0 0 6 4 NNW 1029,3 - 0 0,0
28.05.2020 05:00:00 9,5 6,1 5,2 1 1 6 3 W 1029,0 - 0 0,0
28.05.2020 04:00:00 9,8 6,0 5,0 3 1 5 3 N 1029,1 - 0 0,0
28.05.2020 03:00:00 10,9 6,0 5,8 1 1 6 3 N 1029,1 - 0 0,0
28.05.2020 02:00:00 11,3 6,3 7,2 4 2 7 4 WNW 1029,3 - 0 0,0
28.05.2020 01:00:00 12,8 6,0 7,4 3 1 6 3 W 1029,5 - 0 0,0
28.05.2020 00:00:00 13,1 5,9 9,1 2 1 5 3 WNW 1029,4 - 0 0,0
27.05.2020 23:00:00 14,2 5,9 8,8 2 1 8 4 NNW 1029,2 70 0 0,0
27.05.2020 22:00:00 16,0 6,7 10,5 4 2 10 5 N 1028,6 - 0 0,0
27.05.2020 21:00:00 18,9 6,5 14,3 4 2 11 6 N 1027,7 - 37 0,0
27.05.2020 20:00:00 21,5 3,9 21,1 8 4 17 9 NNE 1027,3 75 60 0,0
27.05.2020 19:00:00 22,4 2,1 23,7 10 5 18 10 NE 1027,2 - 60 0,0
27.05.2020 18:00:00 22,7 2,1 25,5 9 5 19 10 NE 1027,5 - 60 0,0
27.05.2020 17:00:00 22,9 3,3 26,6 9 5 21 11 NNE 1027,6 75 60 0,0
27.05.2020 16:00:00 22,3 -0,5 26,5 11 6 26 14 NE 1028,0 - 60 0,0
27.05.2020 15:00:00 21,6 6,9 26,7 10 5 27 14 N 1028,4 - 60 0,0
27.05.2020 14:00:00 20,9 5,8 25,7 14 8 29 16 NE 1029,0 70 60 0,0
27.05.2020 13:00:00 20,4 7,6 24,5 16 8 27 15 NE 1029,4 - 60 0,0
27.05.2020 12:00:00 18,5 7,3 23,6 15 8 24 13 NE 1029,8 - 60 0,0
27.05.2020 11:00:00 17,8 8,0 22,0 14 7 27 15 NNE 1030,0 70 60 0,0
27.05.2020 10:00:00 15,9 6,5 20,3 18 10 30 16 NNE 1030,3 - 60 0,0
27.05.2020 09:00:00 15,3 6,7 18,2 18 10 30 16 NE 1030,2 - 60 0,0
27.05.2020 08:00:00 14,1 6,6 15,6 16 9 26 14 NE 1030,2 70 60 0,0
27.05.2020 07:00:00 12,6 7,2 11,8 4 2 10 6 E 1030,0 - 32 0,0

tt = Température de l'air
td = dewpoint
tt 5cm = Température de l'air 5cm
ff = Vitesse du vent
fx = gusts
dd = Direction du vent
ppp = reduced air pressure
vv = visibility
sd = Ensoleillement
rr = Quantités de précipitations

stations d'obs. à proximité